Location: Biharia
(46.4333°N, 22.8000°E)
Time: 16:42:41
(UTC+00:00)

COSMOS 2251 DEB - Pass Details

Date: 17 August 2022
Orbit: 557 x 890 km, 74.0° (Epoch: 01 October)

Event Time Altitude Azimuth Distance (km) Brightness Sun altitude
Exits shadow 02:30:58 13° 243° (WSW) 1,712 ? -9.9°
Maximum altitude 02:34:05 30° 300° (WNW) 1,056 ? -9.4°
Drops below altitude 10° 02:37:43 10° 2° (N) 1,864 ? -8.9°
Sets 02:40:13 0° 14° (NNE) 2,795 ? -8.5°
